Terminal Aerodrome Forecast
Issued by NWS

Home | Current Version | Previous Version | Text Only | Print | Product List | Glossary On
Versions: 1 2 3 4 5 6 7 8 9 10 11 12 13 14 15 16 17 18
000
FTUS45 KRIW 020528
TAFPNA
TAF
KPNA 020528Z 0206/0306 30005KT P6SM SCT250
     FM022100 30007KT P6SM FEW070 BKN250
     FM030200 29007KT P6SM BKN250
      AMD LTD TO CLD VIS AND WIND=

USA.gov is the U.S. government's official web portal to all federal, state and local government web resources and services.